Location: �perlecques
(50.8057°N, 2.1521°E)
Time: 03:35:20
(UTC+00:00)

BREEZE M DEB (TANK) - Pass Details

Date: 09 April 2020
Orbit: 313 x 13665 km, 49.6° (Epoch: 06 June)

Event Time Altitude Azimuth Distance (km) Brightness Sun altitude
Rises 20:37:04 0° 248° (WSW) 6,013 8.5 -17.7°
Reaches altitude 10° 20:42:37 10° 246° (WSW) 3,552 7.2 -18.3°
Maximum altitude 20:49:21 58° 169° (SSE) 691 3.0 -19.2°
Enters shadow 20:49:51 52° 131° (SE) 688 2.9 -19.2°
